Home > Time Zones > World Clock > Weather > Canada > Ajax > Past weeks

Flag for Canada Weather past 2 weeks in Ajax, Ontario, Canada

Now
27 °F

Mostly cloudy.


Feels Like: 15 °F
Forecast: 2 / 28 °F
Wind: 15 mph from North

Location: Toronto Buttonville

Current Time: Jan 30, 2015 at 4:03:32 AM

Latest Report: Jan 30, 2015 at 3:00 AM


Visibility: 15 mi

Pressure: 29.93 "Hg

Humidity: 80%

Dew point: 21 °F

Location of AjaxLocation

Historic Weather in Ajax — Graph

°F

Ajax temperature yesterday

Maximum temperature yesterday: 32 °F (at 12:00 PM)
Minimum temperature yesterday: 19 °F (at 12:00 AM)
Average temperature yesterday: 27 °F

Past Weeks' High & Low Weather Summary

 TemperatureHumidityPressure
High41 °F (Jan 18, 7:00 AM)100% (Jan 18, 10:00 AM)30.39 "Hg (Jan 18, 10:00 AM)
Low3 °F (Jan 21, 6:00 AM)26% (Jan 28, 4:00 PM)29.47 "Hg (Jan 24, 3:00 PM)
Average21 °F70%30.00 "Hg
* Reported Jan 15 3:00 AM — Jan 30 3:00 AM, Ajax, Weather by CustomWeather, © 2014

Note: Actual official high and low records may vary slightly from our data, if they occured in-between our weather recording intervals... More about our weather records

Advertising

Ajax weather history for previous 24 hours

 ConditionsComfort  
Time TempWeatherWind HumidityBarometerVisibility
3:00 AM
Jan 30
27 °FMostly cloudy.15 mph80%29.93 "Hg15 mi
2:00 AM27 °FOvercast.16 mph80%29.90 "Hg12 mi
1:00 AM28 °FOvercast.14 mph80%29.88 "Hg12 mi
12:00 AM28 °FOvercast.9 mph80%29.85 "Hg10 mi
11:00 PM
Jan 29
28 °FOvercast.8 mph86%29.83 "Hg10 mi
10:00 PM28 °FOvercast.10 mph86%29.81 "Hg10 mi
9:45 PMN/ALight snow.6 mphN/AN/A7 mi
9:00 PM28 °FLight snow. Ice fog.6 mph93%29.79 "Hg2 mi
8:00 PM28 °FLight snow. Ice fog.7 mph93%29.77 "Hg1 mi
7:00 PM28 °FLight snow. Ice fog.6 mph100%29.76 "Hg1 mi
6:00 PM30 °FLight snow. Overcast.2 mph93%29.75 "Hg2 mi
5:00 PM28 °FSnow flurries. More clouds than sun.2 mph100%29.74 "Hg2 mi
4:00 PM28 °FSnow flurries. Ice fog.7 mph100%29.74 "Hg1 mi
3:51 PMN/ASnow flurries.5 mphN/AN/A1 mi
3:00 PM28 °FSleet. Low clouds.6 mph100%29.75 "Hg6 mi
2:52 PMN/ALight freezing rain.6 mphN/AN/A8 mi
2:00 PM28 °FLight snow. Ice fog.3 mph93%29.77 "Hg1 mi
1:00 PM28 °FLight snow. Ice fog.7 mph86%29.81 "Hg1 mi
12:00 PM32 °FMostly cloudy.9 mph47%29.84 "Hg15 mi
11:00 AM30 °FMostly cloudy.12 mph55%29.87 "Hg15 mi
10:00 AM30 °FMostly cloudy.12 mph51%29.94 "Hg15 mi
9:00 AM28 °FMore clouds than sun.12 mph55%30.00 "Hg15 mi
8:00 AM27 °FMostly cloudy.9 mph59%30.06 "Hg15 mi
7:00 AM25 °FOvercast.7 mph69%30.11 "Hg12 mi
6:00 AM25 °FOvercast.9 mph69%30.12 "Hg12 mi
5:00 AM25 °FOvercast.7 mph69%30.17 "Hg12 mi
4:00 AM21 °FOvercast.2 mph74%30.20 "Hg12 mi
Weather by CustomWeather, © 2014

See weather overviewHow to use our weather pages